Regional Weather Roundup
Issued by NWS Boston, MA

Current Version | Previous Version | Text Only | Print | Product List | Glossary On
Versions: 1 2 3 4 5 6 7 8 9 10 11 12 13 14 15 16 17 18 19 20 21 22 23 24 25 26 27 28 29 30 31 32 33 34 35 36 37 38 39 40 41 42 43 44 45 46 47 48 49 50
431
ASUS41 KBOX 251210
RWRBOX

REGIONAL WEATHER ROUNDUP
NATIONAL WEATHER SERVICE TAUNTON MA
800 AM EDT SUN SEP 25 2016

NOTE:  "FAIR" INDICATES FEW OR NO CLOUDS BELOW 12,000 FEET WITH NO
SIGNIFICANT WEATHER AND/OR OBSTRUCTIONS TO VISIBILITY.

MAZALL-251300-
EASTERN MASSACHUSETTS

CITY           SKY/WX    TMP DP  RH WIND       PRES   REMARKS
BOSTON         SUNNY     51  36  56 NW12      30.14S
6HR MIN TEMP:  49; 6HR MAX TEMP:  54;

BEVERLY        SUNNY     47  39  74 NW9       30.13S
LAWRENCE       SUNNY     48  37  65 W9        30.16R
BEDFORD        SUNNY     48  35  60 W10       30.14S
BLUE HILL      NOT AVBL
NORWOOD        SUNNY     50  37  61 NW7       30.15R
MARSHFIELD     SUNNY     52  37  58 VRB6G12   30.13R
PLYMOUTH       SUNNY     47  38  71 W7        30.14R
TAUNTON        SUNNY     47  40  76 NW5       30.14R
NEW BEDFORD    SUNNY     50  39  66 N5        30.14R
$$

MAZALL-251300-
CAPE COD AND THE ISLANDS

CITY           SKY/WX    TMP DP  RH WIND       PRES   REMARKS
FALMOUTH       SUNNY     48  39  71 NW8G14      N/A
HYANNIS        MOSUNNY   55  43  63 NW10G17   30.10R
CHATHAM        SUNNY     56  39  53 N8        30.11R
PROVINCETOWN   SUNNY     55  40  56 N14G22    30.12R
NANTUCKET      MOSUNNY   58  42  55 NW13      30.10S
MARTHAS VNYRD  SUNNY     55  40  56 NW9       30.13R
$$

MAZALL-251300-
CENTRAL AND WESTERN MASSACHUSETTS

CITY           SKY/WX    TMP DP  RH WIND       PRES   REMARKS
WORCESTER      SUNNY     47  33  58 NW10      30.15S
6HR MIN TEMP:  42; 6HR MAX TEMP:  50;

FITCHBURG      SUNNY     48  37  65 NW8       30.17S
ORANGE         MOSUNNY   38  38 100 CALM      30.18R FOG
SPRINGFIELD    SUNNY     40  38  96 S2        30.17S
WESTFIELD      SUNNY     41  40  96 CALM      30.19R
NORTH ADAMS    FOG       37  37 100 CALM      30.21S VSB 1/4
PITTSFIELD     SUNNY     40  37  89 CALM      30.19R
$$

RIZALL-251300-
RHODE ISLAND

CITY           SKY/WX    TMP DP  RH WIND       PRES   REMARKS
PROVIDENCE     SUNNY     52  36  54 N8G17     30.16R
6HR MIN TEMP:  49; 6HR MAX TEMP:  54;

NEWPORT        SUNNY     52  38  58 NW12      30.14R
BLOCK ISLAND   SUNNY     54  41  61 N12G17    30.16R
SMITHFIELD     SUNNY     48  38  68 N8        30.15R
WESTERLY       SUNNY     50  41  71 NW3       30.17R
$$

CTZALL-251300-
CONNECTICUT

CITY           SKY/WX    TMP DP  RH WIND       PRES   REMARKS
BRADLEY INTL   SUNNY     46  40  79 CALM      30.19R
6HR MIN TEMP:  41; 6HR MAX TEMP:  49;

HARTFORD       SUNNY     49  44  83 NE3       30.19R
BRIDGEPORT     SUNNY     53  41  63 NW7       30.19R
DANBURY        SUNNY     45  41  86 CALM      30.21R
GROTON         SUNNY     52  42  69 N6        30.17R
NEW HAVEN      SUNNY     50  44  80 N6        30.19R
CHESTER        FAIR      48  41  76 NW6       30.18S
MERIDEN        SUNNY     50  41  71 NW5       30.19R
WILLIMANTIC    FOG       42  42 100 CALM      30.19R VSB 1/2
OXFORD         SUNNY     46  36  66 N7        30.21R
$$

MEZ002-015-021-024-NHZ003-005-008-011-012-014-VTZ005-008-251300-
NORTHERN NEW ENGLAND

CITY           SKY/WX    TMP DP  RH WIND       PRES   REMARKS
PORTLAND ME    SUNNY     49  35  58 W8        30.10S
6HR MIN TEMP:  42; 6HR MAX TEMP:  49;

BANGOR ME      MOSUNNY   44  37  76 W8        30.03R
CONCORD NH     SUNNY     41  37  86 SE3       30.15R
MANCHESTER NH  SUNNY     48  36  63 N3        30.14R
NASHUA NH      MOSUNNY   45  39  79 NW7       30.16S
PORTSMOUTH NH  MOSUNNY   47  37  67 W12       30.11S
JAFFREY NH     SUNNY     43  36  76 CALM      30.17R
KEENE NH       FOG       36  36 100 CALM      30.19S VSB<1/4
BURLINGTON VT  MOSUNNY   41  36  82 CALM      30.20S
MT. WASHINGTON FOG       23  23 100 NW64G72     N/A  VSB 1/16WCI   0
$$

NYZ052-076-251300-
EASTERN NEW YORK

CITY           SKY/WX    TMP DP  RH WIND       PRES   REMARKS
ALBANY         MOSUNNY   44  40  85 CALM      30.23R
6HR MIN TEMP:  38; 6HR MAX TEMP:  46;

NEW YORK CITY  SUNNY     60  42  51 N5        30.19R
6HR MIN TEMP:  58; 6HR MAX TEMP:  62;

$$

ANZALL-251300-
MARINE OBSERVATIONS

STATION/POSITION TIME  TEMP    WIND        PRES    VSBY  WAVE
                       AIR SEA DIR/SP/G                  HT/PER
                 (UTC) (F)     (DEG/KT/KT) (MB)    (MI)  (FT/S)
BOSTON BUOY      1150   53 64  320/ 17/ 21 1019.0R         4/ 6
BUZZARDS BAY     1200   53     340/ 15/ 18 1021.1R
NANTUCKET SOUND  1150   57 69  320/ 14/ 17 1019.1R         3/ 3
MASS BAY-STELLWA 1104   52 61  310/ 16/ 19 1019.0R  1 3/4  4/ 6
ISLE OF SHOALS   1200   49     300/ 16/ 17 1019.6R
S OF BLOCK IS    1055      67                N/A           5/10
$$

......................KEY.........................
  SKY/WX - SKY CONDITION/PRESENT WEATHER
  TMP    - TEMPERATURE IN FAHRENHEIT
  DWPT   - DEWPOINT IN FAHRENHEIT
  RH     - RELATIVE HUMIDITY IN PERCENT
  WIND   - DIRECTION AND SPEED IN MPH
  PRES   - MEAN SEA LEVEL PRESSURE IN INCHES OF HG
  WCI    - WIND CHILL INDEX
  VSB    - VISIBILITY IN MILES
  HX     - HEAT INDEX
  TC     - TEMPERATURE IN CELSIUS
  VRB    - VARIABLE WIND DIRECTION
  N/A    - NOT AVAILABLE




USA.gov is the U.S. government's official web portal to all federal, state and local government web resources and services.